Weather History for Bellaire, MI

Change the Weather History Date:

Sunday, April 21, 2013

  Actual Average (KTVC) Record (KTVC)
Temperature  
Mean Temperature 34 °F 45 °F  
Max Temperature 49 °F 57 °F 85 °F (1985)
Min Temperature 18 °F 34 °F 16 °F (1981)
Degree Days  
Heating Degree Days 32 20  
Month to date heating degree days 501  
Since 1 July heating degree days 6903  
Cooling Degree Days 0 0  
Month to date cooling degree days 0  
Year to date cooling degree days 0  
Moisture  
Dew Point 18 °F    
Average Humidity 57    
Maximum Humidity 96    
Minimum Humidity 23    
Precipitation  
Precipitation 0.00 in 0.09 in 0.88 in (1969)
Month to date precipitation 1.98  
Year to date precipitation 8.16  
Sea Level Pressure  
Sea Level Pressure 30.49 in    
Wind  
Wind Speed 3 mph (SSE)    
Max Wind Speed 15 mph    
Max Gust Speed 23 mph    
Visibility 10 miles    
Events      
T = Trace of Precipitation, MM = Missing Value Source: NWS Daily Summary

Daily Weather History Graph

Daily Weather History Graph

Search for Another Location

Airport:

Trip Planner

Search our weather history database for the weather conditions in past years. The results will help you decide how hot, cold, wet, or windy it might be!

Date:

Astronomy

Apr. 21, 2013 Rise Set
Actual Time 6:45 AM EDT 8:34 PM EDT
Civil Twilight 6:14 AM EDT 9:05 PM EDT
Nautical Twilight 5:36 AM EDT 9:43 PM EDT
Astronomical Twilight 4:54 AM EDT 10:25 PM EDT
Moon 4:08 PM EDT (4/21) 4:19 AM EDT (4/21)
Length of Visible Light 14h 51m
Length of Day
13h 48m
Waxing Gibbous, 79% of the Moon is Illuminated
Apr 21
Waxing Gibbous
Apr 25
Full
May 2
Last Quarter
May 9
New
May 18
First Quarter

Hourly Weather History & Observations

Time (EDT) Temp. Windchill Dew Point Humidity Pressure Visibility Wind Dir Wind Speed Gust Speed Precip Events Conditions
12:14 AM 23.7 °F - 20.5 °F 87% 30.45 in 10.0 mi Calm Calm - N/A   Clear
12:35 AM 23.2 °F - 20.8 °F 91% 30.45 in 10.0 mi Calm Calm - N/A   Clear
12:54 AM 22.8 °F - 21.2 °F 93% 30.46 in 10.0 mi Calm Calm - N/A   Clear
1:14 AM 22.1 °F - 20.3 °F 93% 30.46 in 10.0 mi Calm Calm - N/A   Clear
1:35 AM 21.9 °F - 20.3 °F 93% 30.47 in 10.0 mi Calm Calm - N/A   Clear
1:54 AM 21.6 °F - 19.4 °F 91% 30.48 in 10.0 mi Calm Calm - N/A   Clear
2:14 AM 21.2 °F - 19.4 °F 93% 30.48 in 10.0 mi Calm Calm - N/A   Clear
2:35 AM 21.4 °F - 19.9 °F 94% 30.49 in 10.0 mi Calm Calm - N/A   Clear
2:54 AM 21.0 °F - 19.4 °F 93% 30.49 in 10.0 mi Calm Calm - N/A   Clear
3:14 AM 20.8 °F - 19.4 °F 94% 30.50 in 10.0 mi Calm Calm - N/A   Clear
3:34 AM 20.7 °F - 19.4 °F 95% 30.50 in 10.0 mi Calm Calm - N/A   Clear
3:54 AM 20.1 °F - 19.0 °F 96% 30.50 in 10.0 mi Calm Calm - N/A   Clear
4:14 AM 20.1 °F - 19.0 °F 96% 30.50 in 10.0 mi Calm Calm - N/A   Clear
4:34 AM 20.1 °F - 18.9 °F 95% 30.51 in 10.0 mi Calm Calm - N/A   Clear
4:55 AM 19.9 °F - 18.5 °F 94% 30.52 in 10.0 mi Calm Calm - N/A   Clear
5:14 AM 19.4 °F - 18.1 °F 95% 30.53 in 10.0 mi Calm Calm - N/A   Clear
5:35 AM 19.2 °F - 17.8 °F 94% 30.53 in 10.0 mi Calm Calm - N/A   Clear
5:54 AM 19.2 °F - 17.6 °F 93% 30.54 in 10.0 mi Calm Calm - N/A   Clear
6:14 AM 19.0 °F - 17.4 °F 93% 30.54 in 10.0 mi Calm Calm - N/A   Clear
6:35 AM 18.9 °F - 17.4 °F 94% 30.55 in 10.0 mi Calm Calm - N/A   Clear
6:54 AM 18.5 °F - 17.2 °F 95% 30.56 in 10.0 mi Calm Calm - N/A   Clear
7:15 AM 19.0 °F - 17.1 °F 92% 30.56 in 10.0 mi Calm Calm - N/A   Clear
7:34 AM 20.1 °F - 17.1 °F 88% 30.57 in 10.0 mi Calm Calm - N/A   Clear
7:54 AM 21.4 °F - 18.5 °F 89% 30.58 in 10.0 mi Calm Calm - N/A   Clear
8:15 AM 24.6 °F - 20.1 °F 83% 30.58 in 10.0 mi Calm Calm - N/A   Clear
8:34 AM 26.2 °F - 19.0 °F 74% 30.58 in 10.0 mi Calm Calm - N/A   Clear
8:54 AM 28.9 °F - 19.9 °F 69% 30.58 in 10.0 mi Calm Calm - N/A   Clear
9:15 AM 31.1 °F - 19.9 °F 63% 30.59 in 10.0 mi Calm Calm - N/A   Clear
9:34 AM 32.7 °F - 18.0 °F 55% 30.58 in 10.0 mi Calm Calm - N/A   Clear
9:54 AM 34.7 °F 28.8 °F 16.3 °F 47% 30.58 in 10.0 mi SSE 6.9 mph - N/A   Clear
10:14 AM 35.8 °F 29.4 °F 16.2 °F 45% 30.58 in 10.0 mi South 8.1 mph - N/A   Clear
10:34 AM 36.5 °F 29.7 °F 15.4 °F 42% 30.58 in 10.0 mi South 9.2 mph - N/A   Clear
10:55 AM 37.2 °F 30.6 °F 15.1 °F 40% 30.58 in 10.0 mi ESE 9.2 mph - N/A   Clear
11:14 AM 37.9 °F 34.4 °F 15.4 °F 40% 30.58 in 10.0 mi SE 4.6 mph - N/A   Clear
11:34 AM 38.3 °F 32.5 °F 14.2 °F 37% 30.58 in 10.0 mi South 8.1 mph - N/A   Clear
11:55 AM 39.6 °F 33.5 °F 13.6 °F 35% 30.57 in 10.0 mi SSE 9.2 mph - N/A   Clear
12:14 PM 39.9 °F 34.5 °F 14.2 °F 35% 30.57 in 10.0 mi SE 8.1 mph - N/A   Clear
12:35 PM 41.4 °F 36.8 °F 14.5 °F 34% 30.56 in 10.0 mi SSE 6.9 mph - N/A   Clear
12:55 PM 42.3 °F 38.6 °F 15.1 °F 33% 30.55 in 10.0 mi SE 5.8 mph - N/A   Clear
1:14 PM 42.3 °F 39.4 °F 14.9 °F 33% 30.54 in 10.0 mi South 4.6 mph - N/A   Clear
1:35 PM 43.0 °F 37.2 °F 12.9 °F 30% 30.53 in 10.0 mi SSE 10.4 mph 19.6 mph N/A   Clear
1:55 PM 43.9 °F 39.9 °F 13.8 °F 30% 30.53 in 10.0 mi SE 6.9 mph - N/A   Clear
2:14 PM 44.6 °F 39.2 °F 12.2 °F 27% 30.52 in 10.0 mi SSW 10.4 mph - N/A   Clear
2:35 PM 45.1 °F 41.4 °F 12.2 °F 26% 30.51 in 10.0 mi SSE 6.9 mph - N/A   Scattered Clouds
2:54 PM 45.5 °F 41.3 °F 10.6 °F 24% 30.50 in 10.0 mi South 8.1 mph 16.1 mph N/A   Scattered Clouds
3:14 PM 47.5 °F - 12.2 °F 24% 30.49 in 10.0 mi SE 11.5 mph 16.1 mph N/A   Scattered Clouds
3:35 PM 46.8 °F - 12.2 °F 25% 30.48 in 10.0 mi South 12.7 mph 19.6 mph N/A   Mostly Cloudy
3:54 PM 48.2 °F - 12.0 °F 23% 30.47 in 10.0 mi SSE 10.4 mph 19.6 mph N/A   Mostly Cloudy
4:15 PM 48.4 °F - 12.7 °F 24% 30.45 in 10.0 mi SSW 10.4 mph 16.1 mph N/A   Scattered Clouds
4:34 PM 48.0 °F - 13.5 °F 25% 30.44 in 10.0 mi South 10.4 mph 18.4 mph N/A   Scattered Clouds
4:54 PM 49.3 °F - 14.7 °F 25% 30.43 in 10.0 mi South 12.7 mph 17.3 mph N/A   Mostly Cloudy
5:15 PM 49.6 °F - 13.6 °F 24% 30.42 in 10.0 mi South 10.4 mph 23.0 mph N/A   Mostly Cloudy
5:34 PM 48.2 °F - 15.4 °F 27% 30.42 in 10.0 mi SE 15.0 mph 19.6 mph N/A   Mostly Cloudy
5:55 PM 48.4 °F - 17.2 °F 29% 30.41 in 10.0 mi South 10.4 mph 17.3 mph N/A   Overcast
6:14 PM 48.6 °F - 17.8 °F 29% 30.40 in 10.0 mi South 11.5 mph 17.3 mph N/A   Overcast
6:35 PM 47.8 °F - 16.5 °F 29% 30.40 in 10.0 mi SSE 13.8 mph - N/A   Overcast
6:55 PM 47.8 °F - 17.2 °F 30% 30.40 in 10.0 mi South 15.0 mph 21.9 mph N/A   Overcast
7:14 PM 47.1 °F - 17.6 °F 31% 30.40 in 10.0 mi South 8.1 mph 19.6 mph N/A   Mostly Cloudy
7:35 PM 46.6 °F - 19.0 °F 33% 30.39 in 10.0 mi SSE 11.5 mph - N/A   Scattered Clouds
7:55 PM 46.4 °F 41.9 °F 19.8 °F 35% 30.39 in 10.0 mi South 9.2 mph - N/A   Mostly Cloudy
8:14 PM 46.4 °F 42.4 °F 20.8 °F 36% 30.39 in 10.0 mi South 8.1 mph - N/A   Overcast
8:35 PM 46.4 °F 42.4 °F 22.1 °F 38% 30.39 in 10.0 mi SSE 8.1 mph - N/A   Overcast
8:55 PM 46.0 °F 41.9 °F 22.5 °F 39% 30.39 in 10.0 mi South 8.1 mph - N/A   Overcast
9:14 PM 45.9 °F 42.3 °F 22.6 °F 40% 30.39 in 10.0 mi South 6.9 mph - N/A   Overcast
9:35 PM 45.5 °F 41.8 °F 23.0 °F 41% 30.39 in 10.0 mi SSE 6.9 mph - N/A   Overcast
9:55 PM 45.5 °F 41.8 °F 23.5 °F 42% 30.39 in 10.0 mi SSE 6.9 mph - N/A   Overcast
10:15 PM 45.1 °F 40.8 °F 24.4 °F 44% 30.38 in 10.0 mi SSE 8.1 mph - N/A   Overcast
10:35 PM 43.9 °F 39.3 °F 24.4 °F 46% 30.38 in 10.0 mi SSE 8.1 mph - N/A   Mostly Cloudy
10:54 PM 43.2 °F 38.4 °F 24.4 °F 48% 30.37 in 10.0 mi SSE 8.1 mph - N/A   Scattered Clouds
11:15 PM 43.2 °F 39.7 °F 25.5 °F 50% 30.37 in 10.0 mi SSE 5.8 mph - N/A   Scattered Clouds
11:35 PM 42.8 °F 39.3 °F 26.4 °F 52% 30.36 in 10.0 mi SSE 5.8 mph - N/A   Scattered Clouds
11:54 PM 42.4 °F 38.8 °F 26.8 °F 54% 30.36 in 10.0 mi SSE 5.8 mph - N/A   Clear